When you browse on this site, cookies collect data to enhance your experience and personalize the content and advertising you see.
Visit our Privacy Policy to learn more. By continuing to use the site, you agree to this use of cookies and data.
  • In Denmark
  • List of Countries
  • For 7 days
  • Water Temperature
  • Weather Map
  • Weather Widgets
  • user-avatar
    Login

    Hourly Weather Lobkovichi

    Today, 24 February, Monday

    Time Temperature Precipitation Wind Pressure Humidity
    00:00 -2°C° 0 mm 4 mps 733 mmHg 83%
    01:00 -2°C° 0 mm 4 mps 733 mmHg 85%
    02:00 -1°C° 0 mm 3 mps 733 mmHg 87%
    03:00 -1°C° 0 mm 3 mps 732 mmHg 89%
    04:00 -2°C° 0 mm 2 mps 732 mmHg 91%
    05:00 -2°C° 0 mm 2 mps 732 mmHg 92%
    06:00 -2°C° 0 mm 2 mps 732 mmHg 91%
    07:00 -1°C° 0 mm 2 mps 732 mmHg 89%
    08:00 -1°C° 0 mm 2 mps 732 mmHg 88%
    09:00 +1°C° 0 mm 2 mps 732 mmHg 82%
    10:00 +1°C° 0 mm 3 mps 732 mmHg 76%
    11:00 +2°C° 0 mm 3 mps 733 mmHg 70%
    12:00 +1°C° 0 mm 4 mps 733 mmHg 70%
    13:00 +1°C° 0 mm 5 mps 733 mmHg 69%
    14:00 +1°C° 0 mm 6 mps 734 mmHg 69%
    15:00 +1°C° 0 mm 5 mps 734 mmHg 71%
    16:00 0°C° 0 mm 5 mps 734 mmHg 74%
    17:00 0°C° 0 mm 4 mps 735 mmHg 77%
    18:00 -1°C° 0 mm 4 mps 736 mmHg 75%
    19:00 -1°C° 0 mm 5 mps 736 mmHg 73%
    20:00 -2°C° 0 mm 5 mps 737 mmHg 71%
    21:00 -2°C° 0 mm 5 mps 738 mmHg 72%
    22:00 -2°C° 0 mm 5 mps 738 mmHg 72%
    23:00 -2°C° 0 mm 5 mps 739 mmHg 72%

    Tomorrow, 25 February, Tuesday

    Time Temperature Precipitation Wind Pressure Humidity
    00:00 -4°C° 0 mm 5 mps 739 mmHg 73%
    01:00 -3°C° 0 mm 4 mps 739 mmHg 75%
    02:00 -3°C° 0 mm 4 mps 739 mmHg 76%
    03:00 -3°C° 0 mm 4 mps 739 mmHg 77%
    04:00 -2°C° 0 mm 3 mps 739 mmHg 79%
    05:00 -4°C° 0 mm 3 mps 739 mmHg 80%
    06:00 -4°C° 0 mm 3 mps 739 mmHg 80%
    07:00 -3°C° 0 mm 2 mps 739 mmHg 80%
    08:00 -2°C° 0 mm 2 mps 739 mmHg 81%
    09:00 -2°C° 0 mm 2 mps 739 mmHg 74%
    10:00 -1°C° 0 mm 3 mps 739 mmHg 67%
    11:00 0°C° 0 mm 3 mps 739 mmHg 61%
    12:00 0°C° 0 mm 4 mps 738 mmHg 58%
    13:00 +1°C° 0 mm 4 mps 738 mmHg 55%
    14:00 +1°C° 0 mm 4 mps 737 mmHg 52%
    15:00 +1°C° 0 mm 4 mps 737 mmHg 58%
    16:00 0°C° 0 mm 4 mps 736 mmHg 64%
    17:00 +1°C° 0 mm 3 mps 736 mmHg 70%
    18:00 -1°C° 0 mm 4 mps 735 mmHg 78%
    19:00 -1°C° 0 mm 5 mps 734 mmHg 87%
    20:00 -1°C° 0 mm 5 mps 734 mmHg 96%
    21:00 -1°C° 0.1 mm 5 mps 733 mmHg 96%
    22:00 0°C° 0.1 mm 5 mps 733 mmHg 96%
    23:00 0°C° 0.1 mm 5 mps 732 mmHg 95%

    Day after tomorrow, 26 February, Wednesday

    Time Temperature Precipitation Wind Pressure Humidity
    00:00 +1°C° 0.1 mm 5 mps 732 mmHg 95%
    01:00 +1°C° 0.1 mm 5 mps 732 mmHg 95%
    02:00 +1°C° 0.1 mm 5 mps 731 mmHg 95%
    03:00 +1°C° 0 mm 5 mps 731 mmHg 95%
    04:00 +1°C° 0 mm 5 mps 731 mmHg 95%
    05:00 +1°C° 0 mm 4 mps 730 mmHg 95%
    06:00 +1°C° 0.6 mm 4 mps 730 mmHg 95%
    07:00 +1°C° 0.6 mm 4 mps 730 mmHg 96%
    08:00 +1°C° 0.6 mm 4 mps 730 mmHg 96%
    09:00 +3°C° 0.1 mm 4 mps 730 mmHg 91%
    10:00 +3°C° 0.1 mm 4 mps 730 mmHg 86%
    11:00 +4°C° 0.1 mm 4 mps 731 mmHg 81%
    12:00 +4°C° 0 mm 4 mps 731 mmHg 75%
    13:00 +5°C° 0 mm 4 mps 731 mmHg 68%
    14:00 +5°C° 0 mm 4 mps 731 mmHg 61%
    15:00 +5°C° 0 mm 4 mps 731 mmHg 64%
    16:00 +4°C° 0 mm 3 mps 731 mmHg 67%
    17:00 +4°C° 0 mm 2 mps 731 mmHg 70%
    18:00 +3°C° 0 mm 2 mps 731 mmHg 73%
    19:00 +3°C° 0 mm 2 mps 732 mmHg 75%
    20:00 +2°C° 0 mm 2 mps 732 mmHg 78%
    21:00 +2°C° 0 mm 2 mps 733 mmHg 78%
    22:00 +2°C° 0 mm 2 mps 733 mmHg 79%
    23:00 +2°C° 0 mm 2 mps 733 mmHg 80%

    27 February, Thursday

    Time Temperature Precipitation Wind Pressure Humidity
    00:00 +2°C° 0 mm 2 mps 732 mmHg 81%
    01:00 +2°C° 0 mm 2 mps 732 mmHg 82%
    02:00 +1°C° 0 mm 2 mps 732 mmHg 84%
    03:00 +2°C° 0 mm 2 mps 732 mmHg 87%
    04:00 +2°C° 0 mm 2 mps 731 mmHg 90%
    05:00 +2°C° 0 mm 2 mps 731 mmHg 93%
    06:00 +2°C° 0.3 mm 2 mps 731 mmHg 95%
    07:00 +2°C° 0.3 mm 2 mps 730 mmHg 96%
    08:00 +2°C° 0.3 mm 2 mps 730 mmHg 98%
    09:00 +2°C° 0.3 mm 2 mps 730 mmHg 98%
    10:00 +2°C° 0.3 mm 2 mps 730 mmHg 98%
    11:00 +2°C° 0.3 mm 2 mps 730 mmHg 98%
    12:00 +3°C° 0 mm 2 mps 730 mmHg 96%
    13:00 +3°C° 0 mm 2 mps 730 mmHg 94%
    14:00 +3°C° 0 mm 2 mps 730 mmHg 93%
    15:00 +2°C° 0 mm 3 mps 730 mmHg 91%
    16:00 +2°C° 0 mm 3 mps 730 mmHg 89%
    17:00 +1°C° 0 mm 4 mps 731 mmHg 88%
    18:00 0°C° 0 mm 4 mps 731 mmHg 86%
    19:00 -1°C° 0 mm 4 mps 732 mmHg 84%
    20:00 -1°C° 0 mm 4 mps 733 mmHg 83%
    21:00 -2°C° 0 mm 4 mps 733 mmHg 81%
    22:00 -2°C° 0 mm 4 mps 733 mmHg 80%
    23:00 -3°C° 0 mm 4 mps 733 mmHg 78%

    28 February, Friday

    Time Temperature Precipitation Wind Pressure Humidity
    00:00 -3°C° 0 mm 4 mps 734 mmHg 78%
    01:00 -4°C° 0 mm 4 mps 734 mmHg 78%
    02:00 -4°C° 0 mm 4 mps 734 mmHg 77%
    03:00 -4°C° 0 mm 4 mps 734 mmHg 75%
    04:00 -4°C° 0 mm 4 mps 734 mmHg 74%
    05:00 -4°C° 0 mm 4 mps 734 mmHg 72%
    06:00 -4°C° 0 mm 4 mps 734 mmHg 70%
    07:00 -5°C° 0 mm 4 mps 734 mmHg 68%
    08:00 -5°C° 0 mm 4 mps 734 mmHg 66%
    09:00 -5°C° 0 mm 5 mps 734 mmHg 61%
    10:00 -5°C° 0 mm 5 mps 734 mmHg 55%
    11:00 -4°C° 0 mm 5 mps 734 mmHg 49%
    12:00 -4°C° 0 mm 5 mps 734 mmHg 46%
    13:00 -2°C° 0 mm 5 mps 734 mmHg 43%
    14:00 -2°C° 0 mm 5 mps 734 mmHg 40%
    15:00 -2°C° 0 mm 4 mps 734 mmHg 43%
    16:00 -3°C° 0 mm 4 mps 734 mmHg 46%
    17:00 -2°C° 0 mm 3 mps 734 mmHg 48%
    18:00 -4°C° 0 mm 3 mps 734 mmHg 51%
    19:00 -3°C° 0 mm 2 mps 734 mmHg 54%
    20:00 -4°C° 0 mm 2 mps 734 mmHg 57%
    21:00 -4°C° 0 mm 2 mps 734 mmHg 57%
    22:00 -3°C° 0 mm 2 mps 734 mmHg 57%
    23:00 -3°C° 0 mm 2 mps 734 mmHg 57%

    29 February, Saturday

    Time Temperature Precipitation Wind Pressure Humidity
    00:00 -3°C° 0 mm 2 mps 733 mmHg 58%
    01:00 -3°C° 0 mm 2 mps 733 mmHg 59%
    02:00 -3°C° 0 mm 2 mps 733 mmHg 60%
    03:00 -3°C° 0.1 mm 2 mps 732 mmHg 65%
    04:00 -3°C° 0.1 mm 2 mps 732 mmHg 71%
    05:00 -3°C° 0.1 mm 2 mps 732 mmHg 76%
    06:00 -3°C° 0.2 mm 2 mps 732 mmHg 81%
    07:00 -3°C° 0.2 mm 2 mps 732 mmHg 85%
    08:00 -3°C° 0.2 mm 2 mps 732 mmHg 90%
    09:00 -3°C° 0 mm 2 mps 732 mmHg 85%
    10:00 -2°C° 0 mm 2 mps 732 mmHg 81%
    11:00 -1°C° 0 mm 2 mps 733 mmHg 77%
    12:00 -1°C° 0 mm 2 mps 733 mmHg 73%
    13:00 -1°C° 0 mm 2 mps 733 mmHg 70%
    14:00 +2°C° 0 mm 1 mps 733 mmHg 67%
    15:00 +1°C° 0 mm 1 mps 733 mmHg 69%
    16:00 +1°C° 0 mm 1 mps 733 mmHg 71%
    17:00 0°C° 0 mm 0 mps 733 mmHg 72%
    18:00 0°C° 0 mm 0 mps 733 mmHg 74%
    19:00 0°C° 0 mm 1 mps 733 mmHg 75%
    20:00 0°C° 0 mm 1 mps 733 mmHg 77%
    21:00 0°C° 0 mm 1 mps 733 mmHg 80%
    22:00 -2°C° 0 mm 2 mps 733 mmHg 83%
    23:00 -3°C° 0 mm 2 mps 733 mmHg 86%
    Show more